Voltar ao catálogo

FENGYUN 1C DEB

AtivoSSO
NORAD 30954·DEBRIS·🇨🇳 China

Lançado May 10, 1999 de Taiyuan Satellite Launch Center

Loading…

Próximas Passagens (próximas 24 horas)

TLE

AtualizadoSource: Space-Track

Época: Sep 14, 2026, 06:06 UTC

1 30954U 99025BAU 26257.25455168  .00001148  00000-0  55870-3 0  9996
2 30954  98.7159 356.1853 0127786 119.7240 268.9633 14.15865528  2844

Acompanhe FENGYUN 1C DEB em tempo real com AllMySat

Download on the App Store